Regional Weather Roundup
Issued by NWS

Home | Current Version | Previous Version | Graphics & Text | Print | Product List | Glossary On
Versions: 1 2 3 4 5 6 7 8 9 10 11 12 13 14 15 16 17 18 19 20 21 22 23 24 25 26 27 28 29 30 31 32 33 34 35 36 37 38 39 40 41 42 43 44 45 46 47 48 49 50
000
ASUS43 KIND 222109
RWRIN

WEATHER ROUNDUP FOR INDIANA
NATIONAL WEATHER SERVICE INDIANAPOLIS IN
500 PM EDT MON SEP 22 2014

NOTE: "FAIR" INDICATES FEW OR NO CLOUDS BELOW 12,000 FEET WITH NO
SIGNIFICANT WEATHER AND/OR OBSTRUCTIONS TO VISIBILITY.

* - STATION DOES NOT REPORT WEATHER SUCH AS PRECIPITATION OR FOG.

+ - STATION NOT QUALITY CONTROLLED BY THE NATIONAL WEATHER SERVICE.
    USE DATA WITH CAUTION...ESPECIALLY DEWPOINT AND RELATIVE
    HUMIDITY OBSERVATIONS.

INZ001>003-010>013-019-020-222200-
NORTHWEST INDIANA

CITY           SKY/WX    TMP DP  RH WIND       PRES   REMARKS
GARY /AIRPORT/ SUNNY     64  41  42 NE9       30.26F
KNOX *+        SUNNY     64  43  46 N10       30.24S
LA PORTE +     SUNNY     60  44  55 N6        30.26S
MICHIGAN CITY+ SUNNY     59  43  55 N3        30.26F
MONTICELLO +   SUNNY     66  46  48 CALM      30.22F
RENSSELAER +   SUNNY     66  41  39 N5        30.24F
VALPARAISO     SUNNY     62  44  51 NW8       30.26F

$$

LMZ046-743>745-222200-
SOUTHERN LAKE MICHIGAN

STATION/POSITION TIME  TEMP WIND        PRES
                       AIR  DIR/SP/G
                 (UTC) (F)  (DEG/KT/KT) (MB)
MICHIGAN CITY    2100   60  290/  3/  5   N/A

$$

INZ004-005-014>016-021>024-222200-
NORTH CENTRAL INDIANA

CITY           SKY/WX    TMP DP  RH WIND       PRES   REMARKS
ELKHART        SUNNY     63  41  45 NW7       30.24S
GOSHEN         SUNNY    N/A N/A N/A NW9       30.23S
LOGANSPORT +   SUNNY     63  43  48 NW6       30.24F
PERU/GRISSOM   SUNNY     64  47  52 NW7       30.23F
ROCHESTER +    SUNNY     68  45  42 N7        30.24S
SOUTH BEND     SUNNY     63  44  50 N12       30.25S
WARSAW +       SUNNY     63  43  48 N8        30.23F

$$

INZ006>009-017-018-025>027-222200-
NORTHEAST INDIANA

CITY           SKY/WX    TMP DP  RH WIND       PRES   REMARKS
ANGOLA *+      SUNNY     64  55  72 NW12      30.21F
AUBURN +       SUNNY     64  37  36 W7        30.22F
FORT WAYNE     MOSUNNY   64  43  46 NW8       30.22F
HUNTINGTON +   SUNNY     63  44  50 NW6       30.22F

$$

INZ028-029-035-036-043>045-051>053-222200-
WEST CENTRAL INDIANA

CITY           SKY/WX    TMP DP  RH WIND       PRES   REMARKS
GREENCASTLE +  SUNNY     64  45  48 CALM      30.24F
LAFAYETTE      SUNNY     65  45  48 NE5       30.23F
TERRE HAUTE    SUNNY     68  43  40 NW7       30.23F

$$

INZ030>032-037>040-046>048-054>057-064-065-222200-
CENTRAL INDIANA

CITY           SKY/WX    TMP DP  RH WIND       PRES   REMARKS
CP ATTERBURY + SUNNY     64  43  45 NW7       30.23S
COLUMBUS       SUNNY     66  39  37 CALM      30.23
FRANKFORT +    SUNNY     66  44  45 NW9       30.25F
INDIANAPOLIS   SUNNY     66  42  41 VRB7      30.23F
-EAGLE CREEK   SUNNY     66  41  40 N8        30.23F
KOKOMO *+      SUNNY     66  43  42 NW5       30.23F
MARION +       SUNNY     64  39  40 CALM      30.24S
MT COMFORT *+  SUNNY     64  30  27 NW6       30.24S
SHELBYVILLE    SUNNY     67  43  41 N9        30.23S
ZIONSVILLE +   SUNNY     65  41  41 N6        30.25S

$$

INZ033-034-041-042-049-050-058-059-222200-
EAST CENTRAL INDIANA

CITY           SKY/WX    TMP DP  RH WIND       PRES   REMARKS
MUNCIE         SUNNY     65  40  39 VRB6      30.23S

$$

INZ060-061-067>069-081>083-085>088-222200-
SOUTHWEST INDIANA

CITY           SKY/WX    TMP DP  RH WIND       PRES   REMARKS
EVANSVILLE     SUNNY     72  44  36 N13       30.22F
WASHINGTON +   SUNNY     69  46  43 NW8       30.22F

$$

INZ062-063-066-070>080-084-089>092-222200-
SOUTH CENTRAL AND SOUTHEAST INDIANA

CITY           SKY/WX    TMP DP  RH WIND       PRES   REMARKS
BEDFORD +      SUNNY     66  41  39 N7        30.23
BLOOMINGTON    SUNNY     67  43  41 NE9       30.23F
NORTH VERNON + SUNNY     68  37  32 W7        30.23
SEYMOUR +      SUNNY     68  45  42 N7        30.23

$$



USA.gov is the U.S. government's official web portal to all federal, state and local government web resources and services.